Other Public Products
Issued by NWS Grand Forks, ND

Home | Current Version | Previous Version | Graphics & Text | Print | Product List | Glossary On
Versions: 1 2 3 4 5 6 7 8 9 10 11 12 13 14 15 16 17 18 19 20 21 22 23 24 25 26 27 28 29 30 31 32 33 34 35 36 37 38 39 40 41 42 43 44 45 46 47 48 49 50
000
FPUS83 KFGF 231731
OPUFGF
PRAIRIE TO PINES WEATHER ROUNDUP
NATIONAL WEATHER SERVICE EASTERN NORTH DAKOTA/GRAND FORKS ND
1200 PM CDT TUE AUG 23 2016

 **SATELLITE DATA USED TO AUGMENT SKY COVER AT AUTOMATED STATIONS**
 *****  WEATHER ACROSS EASTERN NORTH DAKOTA  *****

CITY           SKY/WX    TMP DP  RH WIND       PRES   REMARKS
GRAND FORKS    PTSUNNY   76  64  66 S15       29.62S
GRAND FORKS AF FAIR      78  65  65 S18       29.62S
GRAND CITY NWS   N/A     79 N/A N/A S15         N/A
BUXTON           N/A     79  71  74 S10G24      N/A
DEVILS LAKE    FAIR      76  67  73 SW13      29.63R
FARGO          FAIR      81  65  58 S16G23    29.70S
WAHPETON ARPT  FAIR      81  63  54 S15       29.74S
$$

 *****  WEATHER ACROSS CENTRAL AND WESTERN NORTH DAKOTA  *****

CITY           SKY/WX    TMP DP  RH WIND       PRES   REMARKS
JAMESTOWN      FAIR      78  66  66 S15       29.65R
BISMARCK       MOSUNNY   76  54  46 N22G35    29.71R
MINOT          FAIR      77  39  25 W26G37    29.73R
MINOT AFB      FAIR      76  39  26 NW26G36   29.72R
GARRISON         N/A     78  38  23 NW31G40   29.74R
WILLISTON      MOSUNNY   72  36  26 NW17G26   29.85R
DICKINSON      SUNNY     75  30  19 NW25G35   29.83R
HETTINGER      SUNNY     76  33  21 NW31G40   29.85R
$$

 *****  OTHER OBSERVATIONS NORTHEAST NORTH DAKOTA  *****

CITY           SKY/WX    TMP DP  RH WIND       PRES   REMARKS
WALHALLA       FAIR      77  73  88 W3        29.64R
LANGDON        CLOUDY    79  68  69 VRB7G14   29.66R
CAVALIER       PTSUNNY   77  66  69 SW6       29.64R
GRAFTON        FAIR      79  66  65 S21G26    29.63R
CANDO          FAIR      77  72  83 NW15      29.65F
FORT TOTTEN      N/A     78  67  69 W7        29.95S
ROLLA          PTSUNNY   72  68  88 NE7       29.67S
RUGBY          NOT AVBL
 ***** THE ABOVE OBSERVATIONS ARE NON NWS ARE NOT QUALITY
        CONTROLLED AND MAY MIS-REPORT RAIN FOR SNOW...
$$

 *****  OTHER OBSERVATIONS SOUTHEAST NORTH DAKOTA *****

CITY           SKY/WX    TMP DP  RH WIND       PRES   REMARKS
COOPERSTOWN    NOT AVBL
VALLEY CITY    FAIR      81  66  61 S18G26    29.68F
OAKES            N/A    N/A N/A N/A MISG        N/A
GWINNER        FAIR      81  68  65 S14G20    29.71S
BUFFALO          N/A     81  61  50 S16         N/A
WYNDMERE         N/A     84  66  54 S10         N/A
 ***** THE ABOVE OBSERVATIONS ARE NON NWS ARE NOT QUALITY
       CONTROLLED AND MAY MIS-REPORT RAIN FOR SNOW...
$$

  *****  WEATHER ACROSS NORTHERN MINNESOTA  *****

CITY           SKY/WX    TMP DP  RH WIND       PRES   REMARKS
FLAG ISLAND    FAIR      73  66  78 SE7       29.71R
WARROAD        FAIR      79  70  73 SE16      29.69F
ROSEAU         FAIR      81  68  65 SE14G22   29.69F
HALLOCK        FAIR      81  66  61 S17G23    29.61R
THF RVR FALLS  FAIR      78  63  59 S16       29.69F
HALSTAD          N/A     82  66  58 S24         N/A
FOSSTON        FAIR      81  63  54 S25       29.72R
BAUDETTE       FAIR      76  65  68 SE9       29.75S
WASKISH        FAIR      77  66  69 SE5       29.76R
CROOKSTON      FAIR      81  64  57 S18G25    29.64F
$$
  *****  WEATHER ACROSS CENTRAL AND WEST MINNESOTA  *****

CITY           SKY/WX    TMP DP  RH WIND       PRES   REMARKS
BEMIDJI        FAIR      78  65  64 S15G22    29.77S
PARK RAPIDS    FAIR      80  63  55 S12       29.81S
WADENA         FAIR      79  64  61 S14       29.81S
DETROIT LAKES  FAIR      79  64  61 S15       29.79R
MOORHEAD       FAIR      81  64  57 S14G21    29.72F
FERGUS FALLS     N/A     81  66  61 S18       29.77F
ELBOW LAKE     FAIR      80  68  66 S15       29.79S
MORRIS MN      FAIR      82  66  57 S17       29.78F
STAPLES        FAIR      79  64  61 S15       29.83S
WHEATON        FAIR      82  70  65 SE17      29.76S
$$
  *****  WEATHER ELSEWHERE ACROSS MINNESOTA  *****

CITY           SKY/WX    TMP DP  RH WIND       PRES   REMARKS
DULUTH         FAIR      79  64  60 S14       29.91S
INTRNTL FALLS  FAIR      75  64  68 SE7       29.81F
ELY            FAIR      77  63  61 S12       29.88F
CLOQUET        FAIR      77  61  57 S10G16    29.90S
BRAINERD       FAIR      79  66  64 S10G21    29.85S
HIBBING        FAIR      76  63  64 S9        29.86F
ALEXANDRIA     FAIR      79  65  62 S15G24    29.84S
SAINT CLOUD    FAIR      77  66  68 S16       29.88S
MINNEAPOLIS    FAIR      79  64  60 S14G23    29.92F
$$

  *****  WEATHER ACROSS SOUTH DAKOTA  *****

CITY           SKY/WX    TMP DP  RH WIND       PRES   REMARKS
SIOUX FALLS    LGT RAIN  73  68  84 S18G29    29.85F
BROOKINGS      FAIR      76  66  71 S18G29    29.82F
WATERTOWN      FAIR      79  65  62 S21G30    29.80R
HURON          SUNNY     80  63  55 S21G32    29.74S
SISSETON         N/A     84  66  54 S15G21    29.72S
ABERDEEN       SUNNY     84  64  50 S20G28    29.68S
MITCHELL       SUNNY     82  65  56 S24G35    29.78F
PIERRE         SUNNY     83  61  47 SW14G21   29.68R
MOBRIDGE       MOSUNNY   79  57  46 NW18      29.66R
RAPID CITY     MOSUNNY   76  35  22 NW32G43   29.90R
$$

  *****  SOME WEATHER IN NEARBY STATES *****

CITY           SKY/WX    TMP DP  RH WIND       PRES   REMARKS
GLASGOW MT     SUNNY     68  43  40 W23G37    29.89F
GREAT FALLS MT SUNNY     69  30  23 W15G24    30.02F
CHEYENNE WY    PTSUNNY   76  23  14 NW20G30   30.09R
SCOTTSBLUFF NE SUNNY     79  35  20 NW16G28   29.96S
OMAHA NE       CLOUDY    74  68  81 SE14      29.93F
DES MOINES IA  PTSUNNY   81  67  62 S17G26    30.02F
DAVENPORT IA   FAIR      79  64  60 S13G20    30.14F
CHICAGO IL     PTSUNNY   78  61  55 S15       30.20F
EAU CLAIRE WI  FAIR      79  63  57 S15G23    30.00F
LA CROSSE WI   FAIR      78  69  73 SE15      30.05F
$$

  *****  SOME NATIONAL WEATHER *****

CITY           SKY/WX    TMP DP  RH WIND       PRES   REMARKS
LA GUARDIA NY  MOSUNNY   79  48  33 NW7       30.30S
RALEIGH NC     MOSUNNY   85  59  41 VRB5      30.31F
ATLANTA GA     MOSUNNY   87  67  51 VRB3      30.27F HX  90
NEW ORLEANS LA MOSUNNY   93  74  53 N7        30.21S HX 103
OKLAHOMA CITY  CLOUDY    77  74  90 S15G22    30.07F
ALBUQUERQUE NM MOSUNNY   71  55  56 SW5       30.25S
SALT LAKE CITY PTSUNNY   81  41  24 VRB6      30.08S
LOS ANGELES CA MOSUNNY   71  62  73 W7        30.04R
BOISE ID       SUNNY     66  32  28 NW9       30.13R
SEATTLE WA     MOSUNNY   66  52  60 N7        30.21S
$$

*** WEATHER ACROSS MANITOBA...SASKATCHEWAN AND ONTARIO ***
                ***ONTARIO***

CITY           SKY/WX    TMP DP  RH WIND       PRES   REMARKS
GERALDTON      PTSUNNY   77  66  69 VRB2      29.91F
THUNDER BAY    CLOUDY    77  66  69 S7        29.90R
SIOUX LOOKOUT  CLOUDY    75  68  78 SE6       29.86S
TORONTO        MOSUNNY   81  55  41 SW16G24   30.24R
BIG TROUT LK   SUNNY     63  48  59 VRB2      29.95R
PICKLE LAKE    PTSUNNY   72  59  64 E5        29.91R
DRYDEN         PTSUNNY   73  64  73 E5        29.84F
KENORA         PTSUNNY   70  66  88 E16       29.75F
$$
                *** MANITOBA***

CITY           SKY/WX    TMP DP  RH WIND       PRES   REMARKS
BRANDON        CLOUDY    64  63  94 NW10      29.63R
DAUPHIN        CLOUDY    66  64  94 NE20      29.67F
ISLAND LAKE    CLOUDY    63  54  72 VRB2      29.93R
PILOT MOUND      N/A     73  66  78 NW2         N/A
THE PAS        CLOUDY    64  54  68 E13G22    29.77R
THOMPSON       PTSUNNY   64  48  55 E5        29.97S
WINNIPEG       PTSUNNY   79  66  65 S16       29.63R
LYNN LAKE      PTSUNNY   64  46  52 MISG      30.02R
CHURCHILL      MOSUNNY   61  48  63 NW16G23   29.91
GILLAM         PTSUNNY   64  45  48 CALM      29.98R
$$
                ***SASKATCHEWAN***

CITY           SKY/WX    TMP DP  RH WIND       PRES   REMARKS
ESTEVAN        PTSUNNY   68  43  40 W18G25    29.78S
KINDERSLEY     LGT RAIN  52  50  93 W15G21    29.73R
LLOYDMINSTER   CLOUDY    55  54  94 N18G26    29.78S
PRINCE ALBERT  DRIZZLE   57  55  94 E15       29.70S
REGINA         PTSUNNY   66  46  48 W21       29.77S
YORKTON        MOSUNNY   64  50  59 W8        29.71F
N. BATTLEFORD  CLOUDY    59  50  72 E5        29.71R  C1F1C2F2C3F3C4F4C5F5C6F6C7F7C8F8C9F9CaFaCbFbCcFcCdFdCe!


USA.gov is the U.S. government's official web portal to all federal, state and local government web resources and services.